Other Surface Observations
Issued by NWS Tucson, AZ

Home | Current Version | Previous Version | Text Only | Print | Product List | Glossary On
Versions: 1 2 3 4 5 6 7 8 9 10 11 12 13 14 15 16 17 18 19 20 21 22 23 24 25 26 27 28 29 30 31 32 33 34 35 36 37 38 39 40 41 42 43 44 45 46 47 48 49 50
837
SXUS55 KTWC 251615
OSOTWC

WEATHER ROUNDUP FOR SOUTHEAST ARIZONA
NATIONAL WEATHER SERVICE TUCSON AZ
915 AM MST THU MAY 25 2017

AZZ504>506-514-251715-
LOCATION       SKY/WX    TMP DP  RH WIND       PRES   REMARKS
TUCSON         PTSUNNY   87  19   8 S14       29.81R
DAVIS-MONTHAN  CLOUDY    86  20   9 S15       29.81R
CHILDRENS PARK N/A      N/A N/A  12 E4                PIMA CO DEQ
ALVERNON/22ND  N/A       84 N/A N/A SW6               PIMA CO DEQ
CHERRY/GLENN   N/A      N/A N/A N/A N/A               PIMA CO DEQ
TANGERINE      N/A       82 N/A N/A SW8               PIMA CO DEQ
CONTL RANCH    N/A       83  23  11 S7                PIMA CO DEQ
GRANT/1ST      N/A       83  23  11 S6                PIMA CO DEQ
CRAYCROFT/22ND N/A       83  21  10 N/A               PIMA CO DEQ
GOLFLINKS/KOLB N/A      N/A N/A N/A N/A               PIMA CO DEQ
AJO/12TH       N/A       84  26  12 SE2               PIMA CO DEQ
FAIRGROUNDS    N/A       81 N/A N/A W12               PIMA CO DEQ
SAGUARO        N/A       85  22  10 W2                *SABINO CYN
SAN CARLOS     N/A       84  30  14 E3                *SAN CARLOS
GREEN VALLEY   N/A       83  21  10 SW17              PIMA CO DEQ
HORSE CAMP CYN N/A       77  22  13 W3                *ARAVAIPA CYN
RINCON MTNS    N/A       60  12  15 SW5G16            *NR MANNING CAMP
$$

AZZ509>511-251715-
LOCATION       SKY/WX    TMP DP  RH WIND       PRES   REMARKS
SAFFORD        PTSUNNY   85  21   9 VRB5      29.79R
STRAY HORSE    N/A       60  18  19 N/A               *
TRAIL CABIN    N/A       71  23  16 W5G10             *N OF GRANVILLE
BLACK HILLS    NOT AVBL
DRY LAKE       N/A       65  23  20 SW7G15            *NATANES MTNS
NOON CREEK     N/A       77  18  11 SW10G18           *PINALENO MTNS
COLUMBINE      N/A       51  17  26 SW7G14            *PINALENO MTNS
GUTHRIE        N/A       70  20  15 CALM              *SW OF GUTHRIE
$$

AZZ502-503-513-251715-
LOCATION       SKY/WX    TMP DP  RH WIND       PRES   REMARKS
NOGALES        PTSUNNY   80  19  10 S16G25    29.92R
SELLS          N/A       83  23  11 S6G14             *
SASABE         N/A       80  25  13 SW14G18           *ALTAR VLY
HOPKINS        N/A       65  20  18 W10G17            *SANTA RITA MTNS
CARR CYN       N/A       75  24  15 S4G13             *W OF HEREFORD
$$

AZZ507-508-512-251715-
LOCATION       SKY/WX    TMP DP  RH WIND       PRES   REMARKS
SIERRA VISTA   MOSUNNY   78  15   9 S18G26    29.93R
DOUGLAS        PTSUNNY   82  13   7 SW22      29.91R
EMPIRE MTNS    NOT AVBL
MULESHOE RANCH N/A       78  23  13 SW3               *PRESERVE
HEADQUARTERS   NOT AVBL
$$

.............................NOTES.............................
THIS IS AN AUTOMATED COLLECTIVE WITH MINIMAL QUALITY CONTROL.
PIMA CO DEQ SITES HAVE NONSTANDARD WIND SENSOR HEIGHTS.
PIMA CO DEQ SITES DO NOT REPORT WIND GUSTS.
* INDICATES WIND SENSORS LOCATED AT 20 FEET INSTEAD OF 33 FEET.
..............................KEY..............................
SKY/WX - SKY CONDITION/WEATHER
TMP    - TEMPERATURE IN FAHRENHEIT
DP     - DEWPOINT IN FAHRENHEIT
RH     - RELATIVE HUMIDITY IN PERCENT
WIND   - DIRECTION AND SPEED IN MILES PER HOUR (MPH)
VRB    - VARIABLE WIND DIRECTION
PRES   - MEAN SEA LEVEL PRESSURE IN INCHES OF MERCURY
         F - FALLING PRESSURE   R - RISING PRESSURE
         S - STEADY PRESSURE
VSB    - VISIBILITY IN MILES
HX     - HEAT INDEX IN FAHRENHEIT
WCI    - WIND CHILL INDEX IN FAHRENHEIT
N/A    - NOT AVAILABLE
AFB    - AIR FORCE BASE
         DAVIS-MONTHAN IS DAVIS-MONTHAN AIR FORCE BASE
CYN    - CANYON
MTNS   - MOUNTAINS
NCA    - NATIONAL CONSERVATION AREA
NR     - NEAR
VLY    - VALLEY
CONTL  - CONTINENTAL
PIMA CO DEQ - PIMA COUNTY DEPT OF ENVIRONMENTAL QUALITY



USA.gov is the U.S. government's official web portal to all federal, state and local government web resources and services.